OBJECT M, 62620

Orbit data source: Space-Track

You're viewing an Uncataloged Satellite

Recently launched and/or uncataloged satellites may have evolving metadata. Metadata may include but not limited to: Owner, Maufacturer, Bus, Motor, and Mission.

OBJECT M, 62620 is a satellite in SSO that was launched on Tue, 14 Jan 2025 UTC via an FALCON 9 launch vehicle from the Air Force Western Test Range (AFWTR). Unknown objects in Earth's orbit typically refer to objects detected orbiting the Earth but have not yet been identified or cataloged. These objects could be anything from previously untracked satellites, spent rocket stages, debris from satellite collisions, or even natural meteoroids temporarily captured by Earth's gravity.

Loading next visibility...
Identifier
62620, 2025-009M
Orbit
SSO
Country
Flag of TBDTBD
Related business
None
Manufacturer
Unknown
Mission
Operational Defense Imaging
Bus & Motor
Unknown
Mass
Unknown
Launch date (UTC)
2025-01-14 (9 months ago)
Launch vehicle
FALCON 9
Launch site
Air Force Western Test Range (AFWTR)
Object type
Unknown
Shape & HBR
Box + 2 Pan, 0.2 m
Radar Cross Section
0.121 m², Medium (>0.1 m² and < 1m²)

Expand to show TLE details & history
Last TLE update: 7 hours ago

TLE from 7 hours ago
0 OBJECT M
1 62620U 25009M   25298.21904039  .00044121  00000-0  13971-2 0  9991
2 62620  97.4175  18.4695 0004869  70.2645 289.9121 15.32600438 43163
Epoch: 2025-10-25T05:15Z
TLE epoch observation values (Epoch: 2025-10-25T05:15:25.089Z)
Latitude
-0.00011°
Longitude
-94.23776°
Altitude
470.03 km
Speed
7.632 km/s
True Right ascension
01h 13m 52s
True Declination
0° 00' 00"
Sunlit
Object was in full shadow at epoch
Visualization orbit readout
Latitude
Unknown
Longitude
Unknown
Altitude
Unknown
Speed
Unknown
Apparent Right ascension
Unknown
Apparent Declination
Unknown
Sunlit
N/A
Visualization observer readout
Local Sidereal Time
07:34:13
Azimuth
Unknown
Elevation
Unknown
Doppler factor
Unknown
Orbital elements
Apogee altitude
468.339 km
Perigee altitude
461.675 km
Semi-major axis
6,843.144 km
Eccentricity
0.00049
Inclination
97.4175°
RAAN
18.4695°
Arg. of periapsis
70.2645°
True anomaly
289.85963°
Mean anomaly
289.9121°
Eccentric anomaly
289.88587°
Mean motion
3.83407 °/min
Orbital period
93.9 mins
BSTAR
0.0013971
Loading maneuver chart data...
Computing Atmospheric mass density...
Loading historical data...
Loading historical data...
Loading historical data...
Loading historical data...
Loading historical data...
Loading historical data...
Loading historical data...

Documentation

Showing up to 5 results
|